"TOA5","MOW","CPU:UNC_MeetingWaters","DataHourly"
"TIMESTAMP","SondeTempC","SpCond","DOSat","DOmg","pH","Turb","BattVolt_Min"
"TS","","","","","","",""
"","Smp","Smp","Smp","Smp","Smp","Smp","Min"
"2001-11-01 00:00:00",11.8800001144,0.272000014782,114.699996948,12.3900003433,7.34000015259,0.800000011921,12.5699996948
"2001-11-01 01:00:00",11.7299995422,0.270999997854,114.699996948,12.4300003052,7.32999992371,1.10000002384,12.5399999619
"2001-11-01 02:00:00",11.6099996567,0.270999997854,114.599998474,12.4600000381,7.32999992371,1.39999997616,12.5200004578
"2001-11-01 03:00:00",11.4799995422,0.270999997854,114.699996948,12.5,7.32000017166,1.60000002384,12.5
"2001-11-01 04:00:00",11.4099998474,0.273000001907,114.300003052,12.470000267,7.32999992371,2.09999990463,12.470000267
"2001-11-01 05:00:00",11.279999733,0.273999989033,114.199996948,12.5100002289,7.32000017166,2.40000009537,12.4399995804
"2001-11-01 06:00:00",11.1499996185,0.27500000596,114.699996948,12.6000003815,7.32000017166,2.79999995232,12.4099998474
"2001-11-01 07:00:00",10.9899997711,0.27500000596,114.599998474,12.6300001144,7.30999994278,2.40000009537,12.3800001144
"2001-11-01 08:00:00",10.9099998474,0.277000010014,116.0,12.8100004196,7.32000017166,2.20000004768,12.4099998474
"2001-11-01 09:00:00",11.0399999619,0.277999997139,117.800003052,12.970000267,7.34999990463,1.79999995232,12.8999996185
"2001-11-01 10:00:00",11.5100002289,0.280000001192,120.400001526,13.1099996567,7.38999986649,1.5,12.9099998474
"2001-11-01 11:00:00",12.0200004578,0.280999988317,121.699996948,13.1099996567,7.42000007629,1.29999995232,12.9499998093
"2001-11-01 12:00:00",12.6300001144,0.282000005245,122.599998474,13.0100002289,7.44000005722,1.10000002384,12.9200000763
"2001-11-01 13:00:00",13.1700000763,0.282999992371,122.599998474,12.8599996567,7.44999980927,0.800000011921,12.8900003433
"2001-11-01 14:00:00",13.5200004578,0.284000009298,120.900001526,12.5799999237,7.42999982834,1.0,13.2399997711
"2001-11-01 15:00:00",13.8000001907,0.287000000477,123.300003052,12.7600002289,7.40999984741,1.0,13.1800003052
"2001-11-01 16:00:00",13.8699998856,0.287000000477,121.900001526,12.5900001526,7.40000009537,1.0,12.8800001144
"2001-11-01 17:00:00",13.9899997711,0.287999987602,117.099998474,12.0600004196,7.36999988556,1.29999995232,12.779999733
"2001-11-01 18:00:00",13.970000267,0.287000000477,111.5,11.4799995422,7.34000015259,1.10000002384,12.7399997711
"2001-11-01 19:00:00",13.970000267,0.286000013351,108.5,11.1800003052,7.32000017166,2.0,12.7100000381
"2001-11-01 20:00:00",14.0100002289,0.284000009298,104.5,10.7600002289,7.28999996185,4.0,12.6800003052
"2001-11-01 21:00:00",14.1000003815,0.280000001192,102.099998474,10.4899997711,7.26999998093,8.39999961853,12.6599998474
"2001-11-01 22:00:00",14.0699996948,0.275999993086,102.099998474,10.4899997711,7.26000022888,8.89999961853,12.6300001144
"2001-11-01 23:00:00",14.0100002289,0.272000014782,103.199996948,10.6300001144,7.25,7.69999980927,12.6099996567
"2001-11-02 00:00:00",13.9300003052,0.268999993801,104.099998474,10.7299995422,7.25,7.0,12.5900001526
"2001-11-02 01:00:00",13.8900003433,0.268000006676,105.199996948,10.8599996567,7.25,6.0,12.5699996948
"2001-11-02 02:00:00",13.8699998856,0.266999989748,106.5,11.0,7.26000022888,5.30000019073,12.5500001907
"2001-11-02 03:00:00",13.8000001907,0.266999989748,106.0,10.9600000381,7.26000022888,4.5,12.529999733
"2001-11-02 04:00:00",13.7700004578,0.268000006676,106.5,11.0200004578,7.26999998093,4.0,12.5
"2001-11-02 05:00:00",13.7600002289,0.268999993801,106.199996948,11.0,7.26000022888,3.70000004768,12.4799995422
"2001-11-02 06:00:00",13.779999733,0.270999997854,107.199996948,11.1000003815,7.26000022888,3.20000004768,12.4600000381
"2001-11-02 07:00:00",13.7899999619,0.273999989033,107.300003052,11.1000003815,7.26999998093,2.90000009537,12.4399995804
"2001-11-02 08:00:00",13.8599996567,0.27500000596,108.800003052,11.2399997711,7.26999998093,2.5,12.4499998093
"2001-11-02 09:00:00",14.0500001907,0.275999993086,111.300003052,11.4499998093,7.30999994278,2.09999990463,12.8500003815
"2001-11-02 10:00:00",14.3500003815,0.277000010014,114.699996948,11.720000267,7.34000015259,1.79999995232,13.1000003815
"2001-11-02 11:00:00",14.8199996948,0.279000014067,118.599998474,11.9899997711,7.38000011444,1.60000002384,13.1599998474
"2001-11-02 12:00:00",15.279999733,0.280000001192,117.599998474,11.779999733,7.38000011444,1.5,12.9600000381
"2001-11-02 13:00:00",15.6499996185,0.284000009298,120.900001526,12.0100002289,7.36000013351,1.29999995232,12.8999996185
"2001-11-02 14:00:00",15.9799995422,0.282999992371,119.0,11.75,7.38000011444,1.20000004768,13.1599998474
"2001-11-02 15:00:00",16.0699996948,0.287000000477,118.900001526,11.7100000381,7.32999992371,1.29999995232,13.1199998856
"2001-11-02 16:00:00",16.2000007629,0.287999987602,115.599998474,11.3500003815,7.30000019073,1.39999997616,12.9200000763
"2001-11-02 17:00:00",16.1800003052,0.284999996424,111.699996948,10.9799995422,7.28999996185,1.20000004768,12.7700004578
"2001-11-02 18:00:00",16.1299991608,0.284999996424,106.599998474,10.4899997711,7.28000020981,0.800000011921,12.7299995422
"2001-11-02 19:00:00",16.0499992371,0.280999988317,105.199996948,10.3599996567,7.28999996185,1.20000004768,12.6999998093
"2001-11-02 20:00:00",15.9600000381,0.280000001192,101.400001526,10.0100002289,7.28000020981,1.20000004768,12.6800003052
"2001-11-02 21:00:00",15.8699998856,0.273999989033,104.400001526,10.3299999237,7.26999998093,2.0,12.6599998474
"2001-11-02 22:00:00",15.8299999237,0.277000010014,104.400001526,10.3299999237,7.26999998093,1.5,12.6400003433
"2001-11-02 23:00:00",15.8100004196,0.284000009298,103.599998474,10.2600002289,7.26999998093,1.39999997616,12.6199998856
"2001-11-03 00:00:00",15.8299999237,0.29699999094,103.599998474,10.25,7.25,1.5,12.6000003815
"2001-11-03 01:00:00",15.8400001526,0.305999994278,102.300003052,10.1199998856,7.23999977112,1.70000004768,12.5799999237
"2001-11-03 02:00:00",15.779999733,0.314999997616,100.699996948,9.97999954224,7.21000003815,1.79999995232,12.5699996948
"2001-11-03 03:00:00",15.7600002289,0.317000001669,99.8000030518,9.89000034332,7.19999980927,2.40000009537,12.5399999619
"2001-11-03 04:00:00",15.7100000381,0.317000001669,98.9000015259,9.81999969482,7.19000005722,2.29999995232,12.529999733
"2001-11-03 05:00:00",15.5900001526,0.314999997616,98.4000015259,9.78999996185,7.17999982834,2.79999995232,12.5
"2001-11-03 06:00:00",15.4799995422,0.312999993563,98.5,9.81999969482,7.17999982834,3.29999995232,12.4799995422
"2001-11-03 07:00:00",15.3500003815,0.310000002384,98.1999969482,9.81999969482,7.19000005722,3.5,12.4600000381
"2001-11-03 08:00:00",15.2399997711,0.307999998331,99.3000030518,9.96000003815,7.17999982834,3.40000009537,12.4600000381
"2001-11-03 09:00:00",15.4200000763,0.307000011206,102.5,10.2299995422,7.19999980927,2.90000009537,12.9799995422
"2001-11-03 10:00:00",15.7299995422,0.305000007153,105.400001526,10.4499998093,7.25,2.40000009537,12.9200000763
"2001-11-03 11:00:00",16.1000003815,0.303999990225,109.0,10.7299995422,7.28000020981,2.0,12.9799995422
"2001-11-03 12:00:00",16.5499992371,0.300999999046,110.699996948,10.7899999619,7.30000019073,1.60000002384,12.9799995422
"2001-11-03 13:00:00",16.9500007629,0.298999994993,112.099998474,10.8400001526,7.32000017166,1.20000004768,12.8699998856
"2001-11-03 14:00:00",17.2800006866,0.29699999094,112.199996948,10.7700004578,7.34000015259,1.10000002384,13.1300001144
"2001-11-03 15:00:00",17.3899993896,0.293999999762,110.800003052,10.6099996567,7.34000015259,1.0,13.0799999237
"2001-11-03 16:00:00",17.4500007629,0.291999995708,108.800003052,10.4099998474,7.32999992371,0.699999988079,12.8100004196
"2001-11-03 17:00:00",17.4200000763,0.291000008583,106.400001526,10.1899995804,7.30000019073,0.699999988079,12.7600002289
"2001-11-03 18:00:00",17.3799991608,0.28900000453,104.400001526,10.0,7.28999996185,0.600000023842,12.720000267
"2001-11-03 19:00:00",17.2299995422,0.287000000477,102.199996948,9.81999969482,7.25,0.800000011921,12.6999998093
"2001-11-03 20:00:00",17.0799999237,0.284999996424,101.099998474,9.75,7.23999977112,0.800000011921,12.6700000763
"2001-11-03 21:00:00",16.8600006104,0.282000005245,99.9000015259,9.68000030518,7.23000001907,0.5,12.6499996185
"2001-11-03 22:00:00",16.6499996185,0.277999997139,98.5999984741,9.59000015259,7.21999979019,0.600000023842,12.6300001144
"2001-11-03 23:00:00",16.3700008392,0.275999993086,97.1999969482,9.51000022888,7.21000003815,0.5,12.6099996567
"2001-11-04 00:00:00",16.0799999237,0.27500000596,96.9000015259,9.55000019073,7.19999980927,0.5,12.5900001526
"2001-11-04 01:00:00",15.6700000763,0.277000010014,95.1999969482,9.46000003815,7.21999979019,0.600000023842,12.5600004196
"2001-11-04 02:00:00",15.3599996567,0.277999997139,93.5,9.35000038147,7.21999979019,0.699999988079,12.5399999619
"2001-11-04 03:00:00",15.1300001144,0.279000014067,93.4000015259,9.38000011444,7.21999979019,0.899999976158,12.5100002289
"2001-11-04 04:00:00",14.9399995804,0.282000005245,94.5,9.52999973297,7.21000003815,1.20000004768,12.4899997711
"2001-11-04 05:00:00",14.7899999619,0.282000005245,94.5999984741,9.56999969482,7.21000003815,1.5,12.470000267
"2001-11-04 06:00:00",14.5,0.284000009298,94.6999969482,9.64000034332,7.23000001907,1.60000002384,12.4399995804
"2001-11-04 07:00:00",14.2299995422,0.286000013351,94.6999969482,9.69999980927,7.21000003815,1.89999997616,12.4099998474
"2001-11-04 08:00:00",14.1000003815,0.287999987602,96.8000030518,9.94999980927,7.21999979019,1.70000004768,12.4099998474
"2001-11-04 09:00:00",14.0799999237,0.289999991655,99.9000015259,10.2700004578,7.23999977112,1.60000002384,13.0
"2001-11-04 10:00:00",14.3500003815,0.289999991655,105.199996948,10.75,7.30000019073,1.39999997616,12.9799995422
"2001-11-04 11:00:00",14.5699996948,0.28900000453,108.0,10.9799995422,7.28999996185,1.10000002384,13.0
"2001-11-04 12:00:00",14.9899997711,0.28900000453,111.099998474,11.1999998093,7.34000015259,1.0,12.9399995804
"2001-11-04 13:00:00",15.1999998093,0.287000000477,112.199996948,11.2600002289,7.34000015259,0.899999976158,12.8500003815
"2001-11-04 14:00:00",15.4300003052,0.287000000477,112.5,11.2299995422,7.36000013351,0.699999988079,13.2899999619
"2001-11-04 15:00:00",15.529999733,0.286000013351,111.0,11.0600004196,7.36999988556,0.800000011921,13.2399997711
"2001-11-04 16:00:00",15.5100002289,0.287000000477,108.5,10.8100004196,7.34000015259,0.5,12.9799995422
"2001-11-04 17:00:00",15.4300003052,0.287000000477,106.900001526,10.6700000763,7.30000019073,0.5,12.7700004578
"2001-11-04 18:00:00",15.0600004196,0.284999996424,105.5,10.6099996567,7.28999996185,0.5,12.7100000381
"2001-11-04 19:00:00",14.7299995422,0.284999996424,104.199996948,10.5600004196,7.26999998093,0.699999988079,12.6800003052
"2001-11-04 20:00:00",14.3900003433,0.284999996424,104.099998474,10.6300001144,7.26999998093,0.5,12.6400003433
"2001-11-04 21:00:00",14.0500001907,0.284999996424,102.099998474,10.5100002289,7.26999998093,0.5,12.6199998856
"2001-11-04 22:00:00",13.6899995804,0.286000013351,101.300003052,10.5100002289,7.23000001907,0.300000011921,12.5900001526
"2001-11-04 23:00:00",13.3800001144,0.286000013351,103.800003052,10.8400001526,7.23999977112,0.300000011921,12.5699996948
"2001-11-05 00:00:00",13.1199998856,0.287999987602,104.0,10.9200000763,7.23999977112,0.40000000596,12.5500001907
"2001-11-05 01:00:00",12.9399995804,0.28900000453,103.099998474,10.8699998856,7.26000022888,0.20000000298,12.529999733
"2001-11-05 02:00:00",12.7299995422,0.293000012636,104.300003052,11.0500001907,7.26000022888,0.300000011921,12.5100002289
"2001-11-05 03:00:00",12.5500001907,0.294999986887,105.300003052,11.1999998093,7.28000020981,0.20000000298,12.4799995422
"2001-11-05 04:00:00",12.3299999237,0.294999986887,106.599998474,11.3999996185,7.28999996185,0.5,12.4600000381
"2001-11-05 05:00:00",12.0900001526,0.293999999762,105.800003052,11.3699998856,7.26999998093,0.20000000298,12.4300003052
"2001-11-05 06:00:00",11.8500003815,0.294999986887,107.0,11.5600004196,7.28999996185,0.20000000298,12.3999996185
"2001-11-05 07:00:00",11.7700004578,0.294999986887,108.900001526,11.779999733,7.30999994278,0.10000000149,12.3699998856
"2001-11-05 08:00:00",11.7700004578,0.294999986887,109.5,11.8500003815,7.32000017166,0.5,12.4399995804
"2001-11-05 09:00:00",11.8400001526,0.293999999762,111.699996948,12.0699996948,7.34000015259,0.20000000298,13.1700000763
"2001-11-05 10:00:00",12.1300001144,0.293000012636,114.400001526,12.2899999619,7.36999988556,0.20000000298,13.029999733
"2001-11-05 11:00:00",12.6400003433,0.291999995708,116.199996948,12.3400001526,7.40000009537,0.300000011921,12.9799995422
"2001-11-05 12:00:00",13.0100002289,0.291000008583,116.0,12.2100000381,7.38000011444,0.300000011921,12.970000267
"2001-11-05 13:00:00",13.4099998474,0.289999991655,115.300003052,12.029999733,7.38999986649,0.600000023842,12.8599996567
"2001-11-05 14:00:00",13.5100002289,0.28900000453,113.0,11.7600002289,7.40999984741,0.40000000596,13.3699998856
"2001-11-05 15:00:00",13.4899997711,0.28900000453,109.900001526,11.4499998093,7.36000013351,0.40000000596,13.3299999237
"2001-11-05 16:00:00",13.5100002289,0.296000003815,107.099998474,11.1400003433,7.34999990463,0.5,13.0
"2001-11-05 17:00:00",13.3999996185,0.300999999046,105.199996948,10.970000267,7.32000017166,0.899999976158,12.7700004578
"2001-11-05 18:00:00",13.1400003433,0.305000007153,103.400001526,10.8599996567,7.28999996185,0.600000023842,12.720000267
"2001-11-05 19:00:00",12.779999733,0.312000006437,103.0,10.8999996185,7.28000020981,0.600000023842,12.6800003052
"2001-11-05 20:00:00",12.4200000763,0.321999996901,102.5,10.9300003052,7.28000020981,0.5,12.6400003433
"2001-11-05 21:00:00",12.0399999619,0.333000004292,102.900001526,11.0699996948,7.28000020981,0.300000011921,12.6099996567
"2001-11-05 22:00:00",11.720000267,0.338999986649,104.5,11.3199996948,7.30999994278,0.300000011921,12.5799999237
"2001-11-05 23:00:00",11.6300001144,0.337000012398,102.0,11.0799999237,7.26999998093,0.40000000596,12.5600004196
"2001-11-06 00:00:00",11.4499998093,0.324999988079,107.199996948,11.6899995804,7.30000019073,0.300000011921,12.5399999619
"2001-11-06 01:00:00",11.0799999237,0.319999992847,107.800003052,11.8599996567,7.30999994278,0.5,12.5200004578
"2001-11-06 02:00:00",10.8900003433,0.31400001049,108.900001526,12.0200004578,7.30999994278,0.5,12.5
"2001-11-06 03:00:00",10.5500001907,0.312999993563,109.900001526,12.2299995422,7.30000019073,0.40000000596,12.470000267
"2001-11-06 04:00:00",10.3100004196,0.31400001049,109.900001526,12.3100004196,7.30999994278,0.40000000596,12.4399995804
"2001-11-06 05:00:00",9.98999977112,0.319000005722,109.900001526,12.3900003433,7.30000019073,0.300000011921,12.3999996185
"2001-11-06 06:00:00",9.75,0.326999992132,110.900001526,12.5799999237,7.32000017166,0.20000000298,12.3599996567
"2001-11-06 07:00:00",9.46000003815,0.337000012398,111.900001526,12.779999733,7.30999994278,0.40000000596,12.3199996948
"2001-11-06 08:00:00",9.15999984741,0.345999985933,112.300003052,12.9200000763,7.32000017166,0.10000000149,12.3900003433
"2001-11-06 09:00:00",9.63000011444,0.351999998093,114.5,13.0200004578,7.38000011444,0.5,13.2700004578
"2001-11-06 10:00:00",9.94999980927,0.368000000715,117.300003052,13.2399997711,7.38000011444,0.40000000596,13.220000267
"2001-11-06 11:00:00",10.3599996567,0.409000009298,120.400001526,13.4600000381,7.42999982834,0.600000023842,12.9799995422
"2001-11-06 12:00:00",10.8999996185,0.437000006437,120.400001526,13.2899999619,7.40999984741,0.5,12.9899997711
"2001-11-06 13:00:00",11.3400001526,0.483999997377,123.800003052,13.529999733,7.40000009537,0.300000011921,12.8699998856
"2001-11-06 14:00:00",11.6300001144,0.559000015259,122.599998474,13.3000001907,7.44999980927,0.10000000149,13.4499998093
"2001-11-06 15:00:00",11.6800003052,0.566999971867,120.699996948,13.0799999237,7.44999980927,0.10000000149,13.3800001144
"2001-11-06 16:00:00",11.75,0.547999978065,119.400001526,12.9200000763,7.44000005722,0.20000000298,13.3199996948
"2001-11-06 17:00:00",11.7399997711,0.509000003338,117.699996948,12.75,7.42000007629,0.300000011921,12.8100004196
"2001-11-06 18:00:00",11.5399999619,0.477999985218,116.0,12.6199998856,7.40000009537,0.300000011921,12.75
"2001-11-06 19:00:00",11.3000001907,0.458999991417,114.199996948,12.4899997711,7.36999988556,0.300000011921,12.6999998093
"2001-11-06 20:00:00",11.0600004196,0.46099999547,113.300003052,12.4600000381,7.36999988556,0.5,12.6599998474
"2001-11-06 21:00:00",10.8199996948,0.477999985218,112.199996948,12.4099998474,7.34999990463,0.300000011921,12.6300001144
"2001-11-06 22:00:00",10.4399995804,0.500999987125,111.300003052,12.4099998474,7.32999992371,0.40000000596,12.6000003815
"2001-11-06 23:00:00",10.2399997711,0.533999979496,110.199996948,12.3500003815,7.32000017166,0.899999976158,12.5799999237
"2001-11-07 00:00:00",10.1099996567,0.563000023365,108.900001526,12.2399997711,7.30999994278,0.20000000298,12.5600004196
"2001-11-07 01:00:00",9.85000038147,0.600000023842,111.0,12.5600004196,7.32999992371,0.20000000298,12.529999733
"2001-11-07 02:00:00",9.56999969482,0.60900002718,110.599998474,12.5900001526,7.32999992371,0.20000000298,12.5
"2001-11-07 03:00:00",9.40999984741,0.601000010967,111.300003052,12.7100000381,7.32000017166,0.20000000298,12.4600000381
"2001-11-07 04:00:00",9.18999958038,0.587999999523,111.199996948,12.7700004578,7.32999992371,0.600000023842,12.4399995804
"2001-11-07 05:00:00",9.14000034332,0.560000002384,111.599998474,12.8299999237,7.34000015259,0.600000023842,12.3900003433
"2001-11-07 06:00:00",9.0,0.526000022888,112.5,12.9799995422,7.32999992371,1.20000004768,12.3500003815
"2001-11-07 07:00:00",8.84000015259,0.493000000715,112.900001526,13.0900001526,7.32999992371,0.800000011921,12.3199996948
"2001-11-07 08:00:00",8.73999977112,0.467000007629,113.5,13.1899995804,7.34000015259,0.600000023842,12.3500003815
"2001-11-07 09:00:00",8.86999988556,0.444000005722,115.199996948,13.3400001526,7.36999988556,0.699999988079,13.1499996185
"2001-11-07 10:00:00",9.38000011444,0.428999990225,117.199996948,13.4099998474,7.40000009537,0.5,13.4600000381
"2001-11-07 11:00:00",10.0900001526,0.412999987602,121.199996948,13.6400003433,7.40999984741,0.699999988079,12.9799995422
"2001-11-07 12:00:00",10.8800001144,0.400999993086,121.400001526,13.4099998474,7.44000005722,0.5,13.0699996948
"2001-11-07 13:00:00",11.470000267,0.391000002623,121.800003052,13.279999733,7.42999982834,0.40000000596,12.8900003433
"2001-11-07 14:00:00",11.8500003815,0.38299998641,121.099998474,13.0799999237,7.42000007629,0.40000000596,13.2700004578
"2001-11-07 15:00:00",12.0500001907,0.374000012875,119.400001526,12.8400001526,7.36000013351,0.600000023842,13.1999998093
"2001-11-07 16:00:00",12.279999733,0.358999997377,121.699996948,13.0200004578,7.38000011444,0.600000023842,13.1800003052
"2001-11-07 17:00:00",12.3000001907,0.356000006199,120.099998474,12.8500003815,7.36000013351,0.5,12.8199996948
"2001-11-07 18:00:00",12.3199996948,0.340000003576,114.699996948,12.2600002289,7.34999990463,0.600000023842,12.7700004578
"2001-11-07 19:00:00",12.1099996567,0.338999986649,111.900001526,12.0200004578,7.32999992371,0.5,12.720000267
"2001-11-07 20:00:00",11.8400001526,0.335000008345,109.5,11.8299999237,7.32999992371,0.600000023842,12.6800003052
"2001-11-07 21:00:00",11.7700004578,0.331999987364,108.699996948,11.7700004578,7.32000017166,0.5,12.6499996185
"2001-11-07 22:00:00",11.529999733,0.330000013113,107.300003052,11.6700000763,7.30000019073,0.5,12.6199998856
"2001-11-07 23:00:00",11.3400001526,0.326000005007,105.699996948,11.5600004196,7.26000022888,0.600000023842,12.6000003815
"2001-11-08 00:00:00",11.1199998856,0.317999988794,105.699996948,11.6199998856,7.26999998093,0.40000000596,12.5699996948
"2001-11-08 01:00:00",10.9499998093,0.31400001049,104.800003052,11.5600004196,7.26000022888,0.40000000596,12.5399999619
"2001-11-08 02:00:00",10.6999998093,0.308999985456,107.599998474,11.9399995804,7.26999998093,0.699999988079,12.5200004578
"2001-11-08 03:00:00",10.5100002289,0.307000011206,107.900001526,12.0200004578,7.25,0.600000023842,12.4899997711
"2001-11-08 04:00:00",10.3100004196,0.303999990225,107.699996948,12.0600004196,7.23999977112,0.600000023842,12.4600000381
"2001-11-08 05:00:00",10.0799999237,0.303000003099,107.199996948,12.0699996948,7.26000022888,0.800000011921,12.4300003052
"2001-11-08 06:00:00",9.93000030518,0.303000003099,107.699996948,12.1599998474,7.25,1.10000002384,12.3900003433
"2001-11-08 07:00:00",9.76000022888,0.301999986172,106.400001526,12.0699996948,7.26999998093,0.800000011921,12.3599996567
"2001-11-08 08:00:00",9.44999980927,0.303000003099,104.599998474,11.9499998093,7.21999979019,0.800000011921,12.3500003815
"2001-11-08 09:00:00",9.65999984741,0.303000003099,103.0,11.7100000381,7.26999998093,0.699999988079,12.8800001144
"2001-11-08 10:00:00",9.98999977112,0.300999999046,107.599998474,12.1300001144,7.30999994278,0.699999988079,13.6499996185
"2001-11-08 11:00:00",10.8000001907,0.298000007868,117.800003052,13.0399999619,7.34999990463,1.10000002384,13.0
"2001-11-08 12:00:00",11.6199998856,0.294999986887,120.0,13.029999733,7.38999986649,1.29999995232,13.2399997711
"2001-11-08 13:00:00",12.1800003052,0.294999986887,120.599998474,12.9399995804,7.40999984741,2.0,12.8900003433
"2001-11-08 14:00:00",12.5799999237,0.307999998331,118.5,12.6000003815,7.42000007629,2.20000004768,13.2899999619
"2001-11-08 15:00:00",13.0399999619,0.303000003099,112.300003052,11.8199996948,7.38999986649,3.40000009537,13.2299995422
"2001-11-08 16:00:00",13.5,0.287999987602,106.5,11.0900001526,7.34000015259,3.59999990463,13.2100000381
"2001-11-08 17:00:00",13.75,0.273999989033,102.199996948,10.5799999237,7.28000020981,3.40000009537,12.8199996948
"2001-11-08 18:00:00",13.8199996948,0.261999994516,99.3000030518,10.2600002289,7.23000001907,2.79999995232,12.7700004578
"2001-11-08 19:00:00",13.8400001526,0.252000004053,98.1999969482,10.1499996185,7.17999982834,2.40000009537,12.720000267
"2001-11-08 20:00:00",13.6899995804,0.248999997973,96.4000015259,9.98999977112,7.13999986649,2.09999990463,12.6800003052
"2001-11-08 21:00:00",13.4600000381,0.244000002742,98.6999969482,10.2899999619,7.09999990463,1.60000002384,12.6599998474
"2001-11-08 22:00:00",13.1099996567,0.243000000715,98.0,10.2899999619,7.05000019073,1.5,12.6199998856
"2001-11-08 23:00:00",12.8000001907,0.243000000715,97.0,10.2600002289,7.05999994278,1.29999995232,12.6000003815
"2001-11-09 00:00:00",12.5600004196,0.243000000715,97.9000015259,10.4099998474,7.09999990463,1.39999997616,12.5799999237
"2001-11-09 01:00:00",12.2100000381,0.244000002742,96.0,10.2899999619,7.07000017166,1.10000002384,12.5600004196
"2001-11-09 02:00:00",12.0900001526,0.245000004768,97.8000030518,10.5100002289,7.09000015259,1.10000002384,12.529999733
"2001-11-09 03:00:00",11.8599996567,0.24699999392,97.8000030518,10.5600004196,7.13000011444,0.899999976158,12.5100002289
"2001-11-09 04:00:00",11.6400003433,0.248999997973,98.3000030518,10.6700000763,7.13000011444,0.899999976158,12.4899997711
"2001-11-09 05:00:00",11.5200004578,0.252000004053,100.199996948,10.9099998474,7.17000007629,1.0,12.4600000381
"2001-11-09 06:00:00",11.4799995422,0.254999995232,102.800003052,11.1999998093,7.17999982834,1.0,12.4300003052
"2001-11-09 07:00:00",11.4600000381,0.259999990463,104.800003052,11.4300003052,7.19999980927,1.60000002384,12.3999996185
"2001-11-09 08:00:00",11.3699998856,0.264999985695,106.199996948,11.6000003815,7.19000005722,1.5,12.3900003433
"2001-11-09 09:00:00",11.5399999619,0.268999993801,108.900001526,11.8500003815,7.23000001907,1.60000002384,12.7600002289
"2001-11-09 10:00:00",11.8999996185,0.273999989033,112.5,12.1400003433,7.26999998093,1.29999995232,13.4399995804
"2001-11-09 11:00:00",12.2100000381,0.275999993086,115.900001526,12.4300003052,7.30000019073,1.10000002384,12.9799995422